Regional Weather Roundup
Issued by NWS Cleveland, OH

Home | Current Version | Previous Version | Graphics & Text | Print | Product List | Glossary Off
Versions: 1 2 3 4 5 6 7 8 9 10 11 12 13 14 15 16 17 18 19 20 21 22 23 24 25 26 27 28 29 30 31 32 33 34 35 36 37 38 39 40 41 42 43 44 45 46 47 48 49 50

000
ASUS41 KCLE 240310
RWRCLE
OHIO REGIONAL WEATHER ROUNDUP
NATIONAL WEATHER SERVICE CLEVELAND, OH
1100 PM EDT WED JUL 23 2014

NOTE: "FAIR" INDICATES FEW OR NO CLOUDS BELOW 12,000 FEET WITH NO
SIGNIFICANT WEATHER AND/OR OBSTRUCTIONS TO VISIBILITY.

OHZ001>008-015>018-024>027-034-035-043-044-240400-
   NORTHWEST OHIO

CITY           SKY/WX    TMP DP  RH WIND       PRES   REMARKS
DEFIANCE       PTCLDY    65  59  81 SE3       30.07S
FINDLAY        CLEAR     63  59  87 E3        30.06R
TOLEDO EXPRESS CLOUDY    62  59  90 CALM      30.07R
TOLEDO EXEC    CLEAR     64  57  78 NE6       30.08R
LIMA           CLEAR     63  59  87 E6        30.07S
$$

OHZ009>014-019>023-028>033-038-089-240400-
   NORTHEAST OHIO

CITY           SKY/WX    TMP DP  RH WIND       PRES   REMARKS
CLE-HOPKINS    CLOUDY    64  55  72 N14       30.07S
CLE-LAKEFRONT  CLOUDY    66  57  72 N14       30.03F
CUY CO. ARPT   MOCLDY    63  59  88 N9        30.05F
LORAIN-ELYRIA  PTCLDY    64  55  72 N6        30.07S
ASHTABULA      CLOUDY    65  56  72 N5        30.04S
AKRON-CANTON   CLOUDY    64  56  75 N7        30.04F
WOOSTER        MOCLDY    63  55  75 N9        30.06R
MANSFIELD      CLEAR     58  56  93 N7        30.07S
YOUNGSTOWN     CLOUDY    64  59  83 NW6       30.03S
$$

OHZ042-051>053-060>062-070>072-077>081-240400-
  SOUTHWEST OHIO

CITY           SKY/WX    TMP DP  RH WIND       PRES   REMARKS
CINC-COVINGTON CLOUDY    71  67  87 N10       30.01R
CINC-LUNKEN    CLOUDY    73  67  81 N8        30.01R
HAMILTON       CLOUDY    71  66  84 N7        30.04R
DAYTON         CLOUDY    67  64  90 NE12      30.06R
WRIGHT-PAT AFB CLOUDY    67  64  91 NE10      30.05R
DAYTON GENERAL CLOUDY    68  65  90 N10       30.03R
WILMINGTON     CLOUDY    67  63  87 NE13      30.02R
$$

OHZ036-037-039>041-045>050-054>059-063>069-073>076-082>088-240400-
  CENTRAL AND SOUTHEAST OHIO

CITY           SKY/WX    TMP DP  RH WIND       PRES   REMARKS
COLUMBUS       CLOUDY    68  58  70 N13       30.03R
OSU AIRPORT    CLOUDY    66  59  78 N14       30.04R
BOLTON FIELD   CLOUDY    65  62  90 N10       30.04R
RICKENBACK AFB CLOUDY    67  60  77 N14       30.00S
NEWARK         CLOUDY    66  58  75 N7        30.04R
MARION         CLEAR     60  56  86 E3        30.06S
LANCASTER      LGT RAIN  66  63  90 N3        30.04R FOG
ZANESVILLE     CLOUDY    66  58  75 N8        30.02R
NEW PHILLY     CLOUDY    65  58  78 N5        30.04S
$$



USA.gov is the U.S. government's official web portal to all federal, state and local government web resources and services.